This is the latest recevied weather packets stored in our database for station/object WY1B. If no packets are shown the sender has not sent any weather packets the latest 10 day(s).
| Time | Temp. | Humidity | Pressure | Rain* | Wind** | Luminosity | Snow |
|---|---|---|---|---|---|---|---|
| 1787704329 | 46.11° C | 13% | 1001.6 hPa | 0 mm | - | 97 W/m² | - |
| 1787704028 | 46.67° C | 13% | 1001.5 hPa | 0 mm | - | 109 W/m² | - |
| 1787703727 | 46.67° C | 13% | 1001.7 hPa | 0 mm | - | 135 W/m² | - |
| 1787703423 | 46.67° C | 13% | 1001.7 hPa | 0 mm | - | 146 W/m² | - |
| 1787703118 | 47.22° C | 13% | 1001.5 hPa | 0 mm | - | 140 W/m² | - |
| 1787702814 | 47.78° C | 13% | 1001.8 hPa | 0 mm | - | 184 W/m² | - |
| 1787702509 | 47.78° C | 13% | 1001.9 hPa | 0 mm | - | 200 W/m² | - |
| 1787702205 | 47.78° C | 13% | 1001.6 hPa | 0 mm | - | 215 W/m² | - |
| 1787701899 | 47.78° C | 13% | 1001.8 hPa | 0 mm | - | 229 W/m² | - |
| 1787701596 | 48.33° C | 12% | 1001.9 hPa | 0 mm | - | 243 W/m² | - |
| 1787701291 | 47.78° C | 13% | 1001.9 hPa | 0 mm | - | 258 W/m² | - |
| 1787700987 | 47.78° C | 12% | 1001.9 hPa | 0 mm | - | 274 W/m² | - |
| 1787700687 | 48.89° C | 12% | 1001.9 hPa | 0 mm | - | 288 W/m² | - |
| 1787700384 | 48.89° C | 12% | 1001.8 hPa | 0 mm | - | 304 W/m² | - |
| 1787700079 | 48.89° C | 12% | 1002 hPa | 0 mm | - | 319 W/m² | - |
| 1787699775 | 48.89° C | 12% | 1002.1 hPa | 0 mm | - | 334 W/m² | - |
| 1787699470 | 48.89° C | 12% | 1001.9 hPa | 0 mm | - | 349 W/m² | - |
| 1787699166 | 48.33° C | 12% | 1001.8 hPa | 0 mm | - | 364 W/m² | - |
| 1787698862 | 48.89° C | 12% | 1001.9 hPa | 0 mm | - | 381 W/m² | - |
| 1787698557 | 48.89° C | 12% | 1001.9 hPa | 0 mm | - | 399 W/m² | - |
| 1787698254 | 48.89° C | 12% | 1002.3 hPa | 0 mm | - | 413 W/m² | - |
| 1787697949 | 49.44° C | 12% | 1002.3 hPa | 0 mm | - | 429 W/m² | - |
| 1787697648 | 48.89° C | 12% | 1002.4 hPa | 0 mm | - | 447 W/m² | - |
| 1787697344 | 48.89° C | 12% | 1002.5 hPa | 0 mm | - | 463 W/m² | - |
| 1787697039 | 48.89° C | 12% | 1002.5 hPa | 0 mm | - | 480 W/m² | - |
* Rain latest hour (hover to see other rain measurements)
** Current wind speed in m/s (hover to see current wind gust speed)